Location: Gro�lohra-Kleinwenden
(51.4161°N, 10.6590°E)
Time: 09:11:05
(UTC+00:00)

Daily predictions for brighter satellites

Satellite Brightness Start Highest point End
(mag) Time Altitude Azimuth Time Altitude Azimuth Time Altitude Azimuth
STARLINK-1225 3.6 20:04:40 10° SW 20:08:45 63° SSE 20:12:52 10° ENE
SAR-Lupe-2 4.1 20:06:44 10° NNE 20:10:11 41° E 20:13:35 10° S
Okean 3 3.9 20:06:24 10° SSW 20:10:41 69° WNW 20:15:01 10° N
STARLINK-1271 3.9 20:07:19 10° W 20:11:28 74° N 20:15:37 10° ENE
Cosmos 2369 Rocket 3.8 20:08:33 10° SE 20:11:58 17° E 20:15:23 10° ENE
STARLINK-1104 3.7 20:07:55 10° WNW 20:12:03 66° SSW 20:16:09 10° ESE
STARLINK-1212 3.3 20:10:24 10° W 20:13:30 63° N 20:16:36 10° E
STARLINK-1230 3.6 20:09:36 10° WSW 20:13:43 66° SSE 20:17:51 10° ENE
STARLINK-1105 3.3 20:10:53 10° W 20:13:58 63° N 20:17:03 10° E
NOSS 2-2 (C) 4.3 20:11:51 10° S 20:14:44 23° ESE 20:17:52 10° ENE
STARLINK-1247 3.3 20:11:45 10° W 20:14:51 63° N 20:17:58 10° E
STARLINK-1227 3.3 20:12:15 10° W 20:15:21 63° N 20:18:26 10° E
STARLINK-1226 3.3 20:13:07 10° W 20:16:12 63° N 20:19:18 10° E
STARLINK-1154 3.9 20:12:18 10° W 20:16:28 73° N 20:20:36 10° ENE
SL-4 R/B 3.9 20:15:01 10° W 20:16:29 13° WSW 20:17:55 10° SW
STARLINK-1144 3.8 20:12:55 10° WNW 20:17:01 62° SSW 20:21:07 10° SE
STARLINK-1215 3.3 20:14:00 10° W 20:17:06 63° N 20:20:13 10° E
Cosmos 2221 Rocket 4.2 20:14:06 10° SSW 20:18:36 64° WNW 20:23:09 10° N
STARLINK-1243 3.6 20:14:34 10° WSW 20:18:42 69° SSE 20:22:50 10° ENE
STARLINK-1217 3.3 20:15:49 10° WNW 20:18:55 63° N 20:22:02 10° E
NOSS 3-2 (A) 4.2 20:11:40 10° NW 20:18:56 75° NE 20:27:14 10° SE
ATLAS 2AS CENTAUR R/B 4.4 20:14:32 10° SE 20:19:06 17° ESE 20:23:40 10° ENE
STARLINK-1229 3.3 20:16:44 10° WNW 20:19:50 64° N 20:22:57 10° E
SPOT 5 3.5 20:14:49 10° SE 20:19:55 53° ENE 20:25:08 10° N
STARLINK-1270 3.3 20:17:37 10° WNW 20:20:44 64° N 20:23:51 10° E
STARLINK-1197 3.9 20:17:16 10° W 20:21:25 72° N 20:25:34 10° E
NOSS 8 (F) 4.1 20:18:45 10° SSW 20:21:53 61° SE 20:24:55 10° NE
STARLINK-1103 3.8 20:17:53 10° WNW 20:21:59 59° SSW 20:26:03 10° SE
Meteor 1-13 Rocket 4.4 20:16:37 10° SSW 20:22:16 87° WNW 20:28:05 10° NNE
STARLINK-1189 3.3 20:19:25 10° WNW 20:22:31 64° N 20:25:39 10° E
STARLINK-1188 3.3 20:20:20 10° WNW 20:23:27 64° N 20:26:34 10° E
STARLINK-1236 3.6 20:19:32 10° WSW 20:23:40 73° SSE 20:27:48 10° ENE
STARLINK-1187 3.2 20:21:25 10° WNW 20:24:31 66° N 20:27:36 10° E
ERS-1 Rocket 3.1 20:20:07 10° SSE 20:25:04 64° ENE 20:30:05 10° N
STARLINK-1191 3.3 20:22:47 10° WNW 20:25:52 65° N 20:28:58 10° E
STARLINK-1198 3.9 20:22:15 10° W 20:26:24 71° N 20:30:33 10° E
STARLINK-1221 3.3 20:23:44 10° WNW 20:26:50 65° N 20:29:55 10° E
STARLINK-1101 3.9 20:22:52 10° WNW 20:26:56 56° SSW 20:31:00 10° SE
STARLINK-1222 3.2 20:24:35 10° WNW 20:27:41 65° N 20:30:47 10° E
STARLINK-1214 3.2 20:25:29 10° WNW 20:28:35 65° N 20:31:41 10° E
Cosmos 1066 Rocket 4.2 20:24:37 10° S 20:29:54 61° E 20:35:11 10° NNE
USA 238 DEB 4.0 20:23:43 10° NW 20:30:54 81° NE 20:38:21 10° SE
USA 238 4.0 20:23:49 10° NW 20:31:00 81° NE 20:38:27 10° SE
STARLINK-1199 3.9 20:27:16 10° W 20:31:24 71° N 20:35:34 10° E
USA 245 3.0 20:28:36 10° S 20:31:27 50° WSW 20:33:54 10° NNW
STARLINK-1102 3.9 20:27:52 10° WNW 20:31:55 53° SSW 20:35:48 11° SE
STARLINK-1228 3.4 20:29:32 10° WNW 20:33:02 74° N 20:36:33 10° E
Okean 1 Rocket 3.1 20:28:39 10° N 20:33:09 87° E 20:37:35 10° S
Cosmos 1805 3.5 20:29:33 10° N 20:33:27 55° ENE 20:37:07 11° SSE
STARLINK-1269 3.6 20:29:28 10° WSW 20:33:37 79° SSE 20:37:46 10° ENE
Cosmos 2278 Rocket 3.3 20:29:26 10° SW 20:34:57 50° NW 20:40:30 10° NNE
TSX-5 4.2 20:29:36 10° SSW 20:35:02 74° ESE 20:39:14 10° NE
Resurs 01 Rocket 3.3 20:31:18 10° SSW 20:35:12 30° W 20:39:09 10° NNW
STARLINK-1210 4.0 20:32:14 10° W 20:36:23 70° N 20:40:32 10° E
Nadezhda 4 Rocket 4.0 20:30:20 10° S 20:36:23 67° E 20:42:27 10° NNE
STARLINK-1235 3.2 20:33:10 10° WNW 20:36:25 72° N 20:39:39 10° E
STARLINK-1111 4.0 20:32:50 10° WNW 20:36:52 50° SSW 20:40:34 12° SE
STARLINK-1200 3.6 20:34:26 10° WSW 20:38:35 82° SSE 20:42:44 10° ENE
Cosmos 1455 Rocket 4.1 20:34:43 10° N 20:38:41 33° ENE 20:42:18 12° SE
STARLINK-1219 4.0 20:37:13 10° W 20:41:22 70° N 20:45:31 10° E
STARLINK-1073 4.1 20:37:50 10° WNW 20:41:50 47° SSW 20:45:22 13° SE
SL-8 R/B 4.3 20:37:34 10° W 20:42:06 42° SSW 20:46:17 12° SE
STARLINK-1192 3.6 20:39:25 10° WSW 20:43:34 85° SSE 20:47:44 10° ENE
ATLAS CENTAUR R/B 3.3 20:44:23 10° NW 20:45:43 16° N 20:47:01 10° NE
STARLINK-1211 4.0 20:42:14 10° W 20:46:23 69° N 20:50:31 10° E
Cosmos 371 Rocket 4.3 20:42:01 10° SW 20:46:46 51° WNW 20:51:34 10° NNE
STARLINK-1121 4.2 20:42:50 10° WNW 20:46:47 44° SSW 20:50:08 14° SE
SL-4 R/B 3.7 20:45:01 10° S 20:48:20 19° SE 20:51:41 10° E
STARLINK-1244 3.6 20:44:23 10° WSW 20:48:32 88° S 20:52:42 10° ENE
Terra 2.0 20:44:22 12° SSE 20:48:44 65° ENE 20:53:29 10° N
Cosmos 1110 Rocket 4.0 20:43:40 10° SSW 20:48:48 71° ESE 20:53:59 10° NNE
Spot 2 Rocket 4.3 20:45:17 10° S 20:50:07 46° W 20:55:00 10° NNW
Abrixas rocket 3.7 20:48:15 10° WSW 20:50:25 19° SSW 20:51:50 14° S
SPOT 1/Viking Rocket 3.9 20:45:49 10° S 20:50:56 62° WSW 20:56:04 10° NNW
STARLINK-1245 4.0 20:47:13 10° W 20:51:21 69° N 20:55:30 10° E
Cosmos 1842 4.2 20:48:52 14° SSE 20:51:42 31° E 20:55:10 10° NNE
STARLINK-1106 4.2 20:47:50 10° WNW 20:51:46 42° SSW 20:54:56 14° SE
CARTOSAT-1 3.6 20:47:49 11° SSE 20:52:01 82° WSW 20:56:22 10° NNW
ERBS 3.8 20:49:42 10° W 20:52:51 39° NNW 20:56:01 10° NE
NOSS 8 (H) 4.0 20:49:57 10° SW 20:53:02 75° SE 20:56:08 10° NE
STARLINK-1138 3.6 20:49:22 10° WSW 20:53:31 89° NW 20:57:41 10° ENE
STARLINK-1234 3.0 20:50:56 10° WNW 20:54:14 83° NNE 20:57:31 10° ESE
STARLINK-1233 3.9 20:52:11 10° W 20:56:19 69° N 21:00:28 10° E
STARLINK-1112 4.3 20:52:49 10° WNW 20:56:42 39° SSW 20:59:41 15° SSE
STARLINK-1143 3.6 20:54:19 10° WSW 20:58:29 87° NNW 21:02:39 10° ENE
STARLINK-1209 3.0 20:56:54 10° WNW 21:00:13 89° NNE 21:03:26 11° ESE
STARLINK-1204 3.9 20:57:11 10° W 21:01:19 69° N 21:05:28 10° E
STARLINK-1128 4.4 20:57:48 10° WNW 21:01:38 37° SW 21:04:28 16° SSE
SWAS 4.5 20:59:01 10° NW 21:03:21 80° WSW 21:06:45 16° SSE
STARLINK-1241 3.7 20:59:21 10° WSW 21:03:30 84° NNW 21:07:40 10° ENE
Cosmos 1331 Rocket 4.0 21:00:26 10° SSW 21:05:37 86° ESE 21:10:51 10° NNE
STARLINK-1238 3.9 21:02:11 10° W 21:06:20 70° N 21:10:29 10° E
Aureole 2 Rocket 3.2 21:03:25 10° SW 21:06:23 43° WNW 21:09:13 10° NNE
Cosmos 1733 3.1 21:02:43 10° N 21:06:34 85° E 21:09:32 16° SSE
STARLINK-1239 3.7 21:04:19 10° WSW 21:08:28 82° NNW 21:12:38 10° ENE
Cosmos 1437 Rocket 4.5 21:07:50 10° SW 21:11:16 32° WNW 21:14:46 10° N
STARLINK-1201 3.9 21:07:10 10° W 21:11:19 70° N 21:15:28 10° E
COSMOS 2455 4.4 21:09:44 13° SE 21:12:18 17° ESE 21:16:04 10° ENE
STARLINK-1240 3.7 21:09:17 10° W 21:13:26 80° NNW 21:17:36 10° ENE
Cosmos 1378 3.3 21:09:54 10° SSW 21:13:37 73° WNW 21:17:20 10° N
Cosmos 1486 Rocket 4.1 21:08:44 10° NNW 21:14:04 76° ENE 21:18:13 17° SSE
Cosmos 1544 Rocket 3.9 21:11:19 10° N 21:15:35 53° ENE 21:18:39 18° SSE
USA 215 3.7 21:09:07 10° E 21:15:36 66° NNE 21:22:05 10° WNW
Cosmos 1302 Rocket 4.1 21:10:32 10° S 21:15:44 60° ESE 21:20:57 10° NNE
STARLINK-1206 3.9 21:12:10 10° W 21:16:19 71° N 21:20:28 10° E
Cosmos 1271 Rocket 4.0 21:14:22 17° SE 21:16:25 27° E 21:19:45 10° NE
MTI 3.9 21:13:53 10° NNE 21:16:59 54° E 21:18:58 20° S
Cosmos 1242 Rocket 3.4 21:15:26 19° SSE 21:17:33 36° E 21:20:57 10° NNE
STARLINK-1203 3.8 21:14:07 10° W 21:18:20 78° N 21:22:33 10° ENE
STARLINK-1216 3.8 21:14:16 10° W 21:18:25 78° NNW 21:22:35 10° ENE
STARLINK-60 4.1 21:20:10 22° SE 21:20:10 22° SE 21:22:42 10° E
STARLINK-1205 3.9 21:17:08 10° W 21:21:18 72° N 21:25:27 10° E
Cosmos 1092 Rocket 4.0 21:15:47 10° S 21:21:55 88° E 21:28:07 10° N
NOSS 2-2 (D) 3.1 21:19:17 10° SW 21:22:53 88° SE 21:27:06 10° NE
STARLINK-1237 3.8 21:19:15 10° W 21:23:24 76° N 21:27:34 10° ENE
CENTAUR R/B 3.2 21:15:32 10° NW 21:23:27 89° SW 21:31:08 14° SE
STARLINK-1218 3.8 21:22:09 10° WNW 21:26:18 73° N 21:30:27 10° E
Cosmos 1707 3.9 21:24:35 18° SE 21:26:31 28° E 21:29:52 10° NNE
ATLAS 3B R/B 3.1 21:20:04 10° NW 21:26:45 59° NE 21:33:37 10° ESE
SL-27 R/B 2.6 21:23:41 10° NNW 21:27:17 67° WSW 21:29:28 21° S
STARLINK-1202 3.8 21:24:15 10° W 21:28:24 75° N 21:32:33 10° ENE
NOSS 3-2 (C) 4.1 21:21:17 10° NW 21:28:41 79° SW 21:35:36 16° SE
Cosmos 1766 4.2 21:25:42 10° NNW 21:29:30 43° W 21:32:47 13° SSW
Cosmos 1726 3.6 21:27:27 10° N 21:30:40 27° ENE 21:32:50 16° ESE
STARLINK-1254 3.8 21:27:08 10° WNW 21:31:17 74° N 21:35:26 10° E
ALOS 2 4.2 21:30:24 12° ESE 21:33:38 26° ENE 21:37:16 10° N
Cosmos 1867 3.7 21:28:12 10° NW 21:33:42 75° NE 21:38:07 16° SE
COSMOS 2487 3.8 21:31:42 10° N 21:34:51 30° ENE 21:37:03 16° ESE
STARLINK-1231 3.8 21:32:06 10° WNW 21:36:15 75° N 21:40:25 10° E
STARLINK-1246 3.9 21:34:15 10° W 21:38:23 73° N 21:42:33 10° ENE
Cosmos 1943 Rocket 2.1 21:33:25 10° SSW 21:38:59 87° ESE 21:44:39 10° NNE
NOSS 2-2 (E) 3.9 21:36:38 10° WSW 21:40:15 58° NW 21:44:38 10° NE
NOSS 3-4 (A) 4.0 21:36:32 17° S 21:40:33 36° ESE 21:46:13 10° NE
NOSS 3-4 (C) 4.0 21:36:40 17° S 21:40:39 36° ESE 21:46:19 10° NE
STARLINK-1232 3.7 21:37:06 10° WNW 21:41:16 77° N 21:45:25 10° E
SeaSat 1 3.3 21:37:43 10° NE 21:42:07 32° ESE 21:44:34 21° SSE
EO 1 Del DPAF 3.9 21:39:11 10° NNE 21:42:45 38° E 21:44:29 24° SSE
STARLINK-1224 3.9 21:39:13 10° W 21:43:22 72° N 21:47:31 10° E
STARLINK-1208 3.7 21:42:04 10° WNW 21:46:13 79° N 21:50:23 10° E
STARLINK-1225 3.9 21:44:14 10° W 21:48:22 71° N 21:52:31 10° E
Cosmos 1975 Rocket 3.5 21:44:36 12° SSW 21:48:40 61° WNW 21:53:03 10° N
STARLINK-1212 2.8 21:46:16 10° WNW 21:49:22 63° SSW 21:50:47 28° SE
STARLINK-1105 2.8 21:46:45 10° WNW 21:49:50 62° SSW 21:51:13 29° SE
Meteor 2-10 4.1 21:45:25 10° N 21:50:27 63° ENE 21:53:43 21° SSE
STARLINK-1247 2.8 21:47:37 10° WNW 21:50:43 62° SSW 21:52:06 29° SE
STARLINK-1227 2.8 21:48:07 10° WNW 21:51:12 61° SSW 21:52:32 29° SE
STARLINK-1271 3.7 21:47:05 10° WNW 21:51:14 81° NNE 21:55:24 10° E
BREEZE-M DEB (TANK) 3.4 21:39:22 10° WSW 21:52:02 65° S 21:55:36 10° E
STARLINK-1226 2.9 21:48:59 10° WNW 21:52:04 61° SSW 21:53:23 30° SE
Cosmos 292 Rocket 3.7 21:48:20 15° SSW 21:52:16 74° ESE 21:57:08 10° NNE
BREEZE-M DEB (TANK) 2.8 21:48:50 10° W 21:52:39 64° S 21:56:31 10° ESE
STARLINK-1215 2.9 21:49:52 10° WNW 21:52:58 60° SSW 21:54:16 30° SE
STARLINK-1230 3.9 21:49:13 10° W 21:53:22 70° N 21:57:30 10° E
Cosmos 2227 Rocket 4.3 21:49:19 10° NNW 21:53:38 21° NE 21:57:55 10° E
S3M 4.0 21:47:36 10° N 21:53:47 73° ENE 21:58:10 21° SSE
RESURS DK-1 4.5 21:53:56 12° ESE 21:54:29 12° ESE 21:56:09 10° ENE
STARLINK-1217 2.9 21:51:41 10° WNW 21:54:46 59° SSW 21:56:00 31° SE
Cosmos 2369 Rocket 2.2 21:49:29 10° SSW 21:55:10 85° ESE 22:00:51 10° NNE
STARLINK-1229 2.9 21:52:36 10° WNW 21:55:41 58° SSW 21:56:54 31° SE
STARLINK-1154 3.6 21:52:03 10° WNW 21:56:13 83° NNE 22:00:23 10° ESE
STARLINK-1270 2.9 21:53:29 10° WNW 21:56:35 57° SSW 21:57:45 32° SE
Aureole 3 Rocket 4.4 21:51:25 10° NNW 21:57:26 77° W 22:03:54 18° S
STARLINK-1189 2.9 21:55:17 10° WNW 21:58:22 56° SSW 21:59:28 33° SE
STARLINK-1243 3.9 21:54:13 10° W 21:58:22 70° N 22:02:30 10° E
STARLINK-1188 3.0 21:56:12 10° WNW 21:59:17 55° SSW 22:00:22 33° SE
Cosmos 1340 Rocket 3.2 21:56:19 10° N 22:00:19 54° ENE 22:02:31 25° SE
STARLINK-1187 3.1 21:57:19 10° WNW 22:00:21 50° SSW 22:01:14 35° SSE
ATLAS CENTAUR R/B 2.3 21:59:35 25° SSE 22:00:58 31° ESE 22:04:38 10° ENE
STARLINK-1197 3.6 21:57:01 10° WNW 22:01:11 85° NNE 22:05:20 10° ESE
STARLINK-1191 3.0 21:58:39 10° WNW 22:01:42 53° SSW 22:02:39 35° SSE
Aureole 3 3.9 21:59:10 10° N 22:02:11 32° ENE 22:03:24 23° ESE
STARLINK-1221 3.0 21:59:37 10° WNW 22:02:39 52° SSW 22:03:35 36° SSE
STARLINK-1236 3.9 21:59:11 10° W 22:03:20 69° N 22:07:28 10° E
STARLINK-1222 3.0 22:00:27 10° WNW 22:03:30 52° SSW 22:04:23 36° SSE
Thor Agena Rocket 3.6 21:58:17 10° NNE 22:03:36 70° ESE 22:07:12 21° S
STARLINK-1214 3.0 22:01:21 10° WNW 22:04:23 51° SSW 22:05:16 36° SSE
NOSS 2-2 (C) 4.4 22:01:25 10° WSW 22:04:57 46° NW 22:09:11 10° NE
Cosmos 1908 4.5 22:01:55 10° N 22:05:22 31° ENE 22:07:21 19° ESE
Cosmos 1025 Rocket 3.0 22:02:57 24° S 22:05:28 75° E 22:09:48 10° NNE
EXPRESS MD2 4.1 22:02:02 10° WSW 22:06:09 75° S 22:14:55 10° E
STARLINK-1198 3.6 22:01:59 10° WNW 22:06:10 87° NNE 22:10:19 10° ESE
Cosmos 2026 Rocket 4.4 22:00:23 11° SSW 22:06:29 63° WNW 22:12:50 10° N
Cosmos 1553 Rocket 4.1 22:01:00 10° NNW 22:07:17 72° W 22:11:43 20° S
BREEZE M DEB (TANK) 1.7 22:05:25 10° WSW 22:08:18 53° S 22:08:33 49° SE
Cosmos 1953 2.3 22:04:40 10° N 22:08:41 76° E 22:10:41 28° SSE
ATLAS 2AS CENTAUR R/B 3.1 22:00:53 10° SSW 22:08:42 61° SE 22:16:28 10° NE
Cosmos 1656 Rocket 3.8 22:04:50 19° S 22:08:49 60° ESE 22:14:18 10° NE
BREEZE-M DEB (TANK) 4.4 21:56:57 10° WNW 22:09:25 48° SW 22:11:56 24° SSE
Cosmos 1470 3.4 22:05:58 10° NNW 22:09:43 47° W 22:11:51 22° SSW
STARLINK-1228 3.6 22:06:51 10° WNW 22:10:10 42° SSW 22:11:08 33° SSE
STARLINK-1199 3.6 22:06:59 10° WNW 22:11:10 90° ENE 22:15:19 10° ESE
STARLINK-1235 3.5 22:09:35 10° W 22:12:38 40° SSW 22:13:12 36° S
STARLINK-1269 3.9 22:09:11 10° W 22:13:20 69° N 22:17:28 10° E
APEX 4.2 22:06:58 10° SSW 22:13:22 86° ESE 22:18:34 10° NNE
Cosmos 968 Rocket 4.0 22:09:33 10° NW 22:14:29 47° WSW 22:17:31 22° S
Cosmos 2292 Rocket 3.7 22:13:24 28° SE 22:14:38 39° E 22:17:38 10° NNE
STARLINK-1210 3.5 22:11:58 10° WNW 22:16:08 87° SSW 22:20:07 11° ESE
Cosmos 1455 Rocket 4.5 22:12:40 10° NNW 22:16:28 30° W 22:19:25 14° SW
STARLINK-1200 3.9 22:14:09 10° W 22:18:17 69° N 22:22:26 10° E
Cosmos 1655 Rocket 4.0 22:15:01 21° S 22:19:26 82° E 22:25:44 10° NNE
Cosmos 1777 Rocket 4.5 22:14:26 10° NNW 22:19:36 56° ENE 22:23:18 19° SE
SL-4 R/B 0.7 22:20:17 55° E 22:20:21 56° ENE 22:22:30 10° N
STARLINK-1219 3.5 22:16:56 10° WNW 22:21:06 84° SSW 22:24:52 12° ESE
ATLAS 5 CENTAUR R/B 1.6 22:21:46 28° SSW 22:23:03 43° SE 22:25:13 10° ENE
Cosmos 1758 4.2 22:19:21 10° NNW 22:23:11 41° W 22:25:25 21° SSW
STARLINK-1192 3.9 22:19:09 10° W 22:23:18 70° N 22:27:26 10° E
STARLINK-52 4.0 22:26:28 28° ESE 22:26:28 28° ESE 22:28:37 10° E
STARLINK-1211 3.5 22:21:56 10° WNW 22:26:06 81° SSW 22:29:40 14° ESE
Cosmos 2228 3.5 22:22:15 10° N 22:26:24 48° ENE 22:28:36 24° SE
Terra 3.8 22:23:31 10° SW 22:26:56 19° W 22:30:23 10° NW
Cosmos 1726 Rocket 4.3 22:23:01 10° N 22:27:08 42° ENE 22:29:30 22° SE
Meteor 2-15 4.5 22:20:57 10° N 22:27:09 80° E 22:31:06 24° SSE
SL-4 R/B 2.4 22:22:40 10° SW 22:27:22 55° SSE 22:32:07 10° ENE
STARLINK-1244 3.9 22:24:08 10° W 22:28:16 70° N 22:32:25 10° E
ERBS 4.3 22:26:42 10° WNW 22:29:42 30° N 22:32:43 10° ENE
STARLINK-1234 4.0 22:27:25 10° W 22:30:16 29° SW 22:30:16 29° SW
STARLINK-1245 3.5 22:26:54 10° WNW 22:31:04 78° SSW 22:34:26 15° ESE
In-Cosmos 22 4.1 22:30:05 25° S 22:33:14 74° E 22:38:31 10° NNE
STARLINK-1138 3.9 22:29:08 10° W 22:33:17 71° N 22:37:26 10° E
STARLINK-1233 3.5 22:31:52 10° WNW 22:36:00 75° SSW 22:39:12 17° ESE
STARLINK-1209 4.2 22:33:39 10° W 22:36:13 26° SW 22:36:13 26° SW
Cosmos 2266 Rocket 3.9 22:33:43 23° S 22:37:42 82° E 22:43:45 10° NNE
STARLINK-1143 3.9 22:34:05 10° W 22:38:15 72° N 22:42:24 10° E
STARLINK-1204 3.5 22:36:51 10° WNW 22:40:59 72° SSW 22:43:59 18° ESE
SJ 16-02 3.5 22:39:11 10° N 22:42:39 22° NE 22:46:06 10° ESE
STARLINK-1241 3.8 22:39:07 10° WNW 22:43:17 72° N 22:47:26 10° E
STARLINK-1238 3.5 22:41:52 10° WNW 22:46:00 68° SSW 22:48:47 20° SE
Meteor 2-15 Rocket 4.4 22:40:54 10° N 22:47:05 89° ENE 22:50:55 25° S
STARLINK-1239 3.8 22:44:05 10° WNW 22:48:15 74° N 22:52:24 10° E
Cosmos 1536 Rocket 4.2 22:45:44 20° SW 22:48:32 48° WNW 22:52:47 10° N
Helios 1B rocket 4.3 22:45:35 10° NE 22:48:33 19° E 22:50:09 15° ESE
Cosmos 1674 2.7 22:48:20 35° SSE 22:49:45 67° E 22:53:33 10° NNE
STARLINK-1201 3.5 22:46:50 10° WNW 22:50:57 65° SSW 22:53:33 21° SE
Cosmos 1271 Rocket 4.3 22:49:29 14° SW 22:52:19 31° WNW 22:55:53 10° N
STARLINK-1240 3.8 22:49:04 10° WNW 22:53:13 75° N 22:57:22 10° E
STARLINK-60 2.8 22:52:45 10° WSW 22:55:56 84° SSE 22:59:08 10° ENE
STARLINK-1206 3.6 22:51:50 10° WNW 22:55:56 62° SSW 22:58:21 23° SE
COSMOS 2455 2.8 22:52:50 19° SSW 22:57:20 80° SE 23:03:23 10° NE
Cosmos 2219 3.8 22:51:48 10° NNW 22:57:25 55° NE 23:02:17 13° SE
STARLINK-1216 3.7 22:54:02 10° WNW 22:58:12 76° N 23:02:21 10° E
STARLINK-1203 3.8 22:54:07 10° WNW 22:58:20 77° N 23:02:32 10° E
USA 215 3.3 22:52:56 14° SE 22:58:41 66° SW 23:05:13 10° WNW
STARLINK-1205 3.6 22:56:48 10° WNW 23:00:53 58° SSW 23:03:07 25° SE
Cosmos 2297 Rocket 2.9 22:56:08 10° NNW 23:01:40 50° NE 23:07:00 11° SE
Cosmos 1707 4.3 22:59:44 15° SW 23:02:20 29° WNW 23:05:48 10° N
STARLINK-1237 3.7 22:59:01 10° WNW 23:03:11 78° N 23:07:21 10° E
Helios 1A 2.9 23:01:35 31° SSE 23:03:33 85° WSW 23:07:45 10° NNW
Lacrosse 4 Rocket 3.6 23:01:38 10° NNW 23:05:19 25° NE 23:08:54 10° E
Cosmos 1726 3.6 23:02:38 10° NNW 23:05:50 28° W 23:07:20 21° SW
STARLINK-1218 3.7 23:01:48 10° WNW 23:05:52 55° SSW 23:07:55 27° SE
STARLINK-1368 4.4 23:08:27 27° SE 23:08:27 27° SE 23:11:26 10° E
STARLINK-1202 3.7 23:04:01 10° WNW 23:08:11 80° NNE 23:12:20 10° E
Cosmos 1174 3.6 23:06:36 27° SW 23:08:17 76° NW 23:12:15 10° NE
Timation 2 Rocket 3.9 23:02:44 10° NW 23:09:05 73° WSW 23:12:55 24° SSE
Cosmos 2058 Rocket 3.2 23:05:15 10° N 23:09:42 71° ENE 23:11:58 28° SSE
ALOS 2 3.2 23:07:47 27° SSW 23:09:46 45° W 23:14:00 10° NNW
COSMOS 2487 3.9 23:06:57 10° NW 23:09:47 23° WSW 23:10:32 22° WSW
STARLINK-1254 3.7 23:06:47 10° WNW 23:10:49 52° SSW 23:12:41 28° SSE
STARLINK-1369 4.3 23:11:47 29° SE 23:11:47 29° SE 23:14:56 10° E
CENTAUR R/B 4.2 23:06:49 10° WNW 23:13:40 31° WSW 23:18:17 19° SSW
STARLINK-1372 4.2 23:15:07 31° SE 23:15:07 31° SE 23:18:28 10° E
STARLINK-1231 3.8 23:11:46 10° WNW 23:15:46 49° SSW 23:17:27 30° SSE
ATLAS 3B R/B 3.2 23:10:58 10° NW 23:17:21 45° WSW 23:21:09 24° S
Meteor 2-5 Rocket 3.7 23:14:12 26° S 23:17:24 78° E 23:23:04 10° NNE
STARLINK-1246 3.6 23:14:00 10° WNW 23:18:10 84° NNE 23:22:19 10° ESE
STARLINK-1378 4.1 23:18:28 32° SSE 23:18:33 32° SE 23:21:58 10° E
Cosmos 1606 Rocket 4.0 23:15:29 10° NNW 23:19:42 50° W 23:21:36 28° SSW
SeaSat 1 3.2 23:15:03 10° NNE 23:19:50 51° NW 23:24:21 11° SW
SL-14 R/B 3.6 23:19:11 32° SSE 23:20:39 54° E 23:24:25 10° NNE
STARLINK-1232 3.9 23:16:46 10° WNW 23:20:45 46° SSW 23:22:15 31° SSE
FALCON 9 DEB 3.2 23:20:07 40° SSW 23:21:01 55° SSE 23:24:24 10° ENE
STARLINK-1379 4.1 23:21:51 33° SSE 23:22:03 34° SE 23:25:31 10° E
STARLINK-1224 3.6 23:18:58 10° WNW 23:23:08 86° NNE 23:27:17 10° ESE
Cosmos 1943 Rocket 4.3 23:18:57 10° W 23:23:29 25° NW 23:28:04 10° NNE
STARLINK-1329 4.0 23:23:14 34° SSE 23:23:30 34° SE 23:26:59 10° E
Meteor 2-21 4.5 23:20:59 25° S 23:24:46 79° E 23:31:00 10° NNE
STARLINK-1208 3.9 23:21:44 10° WNW 23:25:41 44° SSW 23:27:00 32° SSE
STARLINK-29 2.8 23:24:02 24° WSW 23:25:49 80° SSE 23:29:02 10° ENE
SL-16 R/B 4.2 23:21:50 10° ESE 23:27:02 30° NE 23:32:15 10° N
STARLINK-1362 4.0 23:26:40 35° SSE 23:27:04 36° SSE 23:30:35 10° E
ATLAS CENTAUR R/B 0.9 23:25:50 10° WNW 23:27:58 88° NE 23:31:54 10° ESE
STARLINK-1225 3.6 23:23:58 10° WNW 23:28:08 89° NNE 23:32:17 10° ESE
STARLINK-1373 3.9 23:30:05 36° SSE 23:30:37 38° SSE 23:34:12 10° E
STARLINK-1271 4.0 23:26:46 10° WNW 23:30:40 41° SSW 23:31:49 33° S
NOSS 3-4 (A) 3.9 23:25:07 10° WSW 23:31:06 63° NW 23:37:37 10° NE
NOSS 3-4 (C) 3.9 23:25:12 10° WSW 23:31:12 64° NW 23:37:43 10° NE
STARLINK-1365 3.9 23:31:12 36° S 23:31:51 39° SSE 23:35:27 10° ENE
RESURS DK-1 2.3 23:29:48 29° SSW 23:31:51 90° NNW 23:36:01 10° NNE
STARLINK-1230 3.5 23:28:56 10° WNW 23:33:06 88° SSW 23:37:15 10° ESE
STARLINK-1390 3.9 23:33:34 36° S 23:34:13 39° SSE 23:37:49 10° ENE
STARLINK-1154 4.1 23:31:45 10° WNW 23:35:38 38° SSW 23:36:36 33° S
Cosmos 1697 Rocket 4.4 23:32:47 14° SE 23:35:49 20° E 23:39:52 10° NE
Cosmos 2084 3.5 23:33:36 28° SSW 23:35:53 70° SE 23:40:21 10° NE
BREEZE-M R/B 3.9 23:31:44 14° SW 23:36:58 38° SSE 23:40:28 10° E
Cosmos 1626 2.0 23:36:00 36° S 23:37:26 87° E 23:41:11 10° N
STARLINK-1243 3.5 23:33:56 10° WNW 23:38:06 85° SSW 23:42:15 10° ESE
Cosmos 2227 Rocket 2.3 23:32:57 10° NNW 23:38:40 75° ENE 23:43:30 15° SE
ATLAS CENTAUR R/B 2.3 23:35:42 10° WSW 23:39:47 46° NW 23:43:41 10° NE
Okean 1-7 Rocket 3.6 23:37:39 30° SSW 23:39:53 84° W 23:44:28 10° N
Cosmos 2369 Rocket 4.2 23:35:16 10° W 23:39:55 25° NW 23:44:34 10° NNE
STARLINK-1197 4.2 23:36:44 10° W 23:40:33 36° SW 23:41:21 33° S
CZ-4 R/B 3.9 23:36:36 10° NNE 23:41:23 66° ESE 23:43:50 28° S
STARLINK-1236 3.5 23:38:54 10° WNW 23:43:04 82° SSW 23:47:12 10° ESE
STARLINK-1198 4.3 23:41:44 10° W 23:45:31 34° SW 23:46:07 32° SSW
Landsat 4 4.1 23:45:38 10° N 23:49:16 54° WNW 23:51:00 28° SW
Cosmos 1602 Rocket 4.2 23:47:23 24° SSE 23:49:36 44° E 23:53:44 10° NNE
STARLINK-1199 4.3 23:46:46 10° W 23:50:28 32° SW 23:50:56 31° SSW
STARLINK-1269 3.5 23:48:52 10° WNW 23:53:01 76° SSW 23:57:09 10° ESE
STARLINK-1210 4.4 23:51:46 10° W 23:55:24 30° SW 23:55:41 30° SSW
